Hartford, CT

1:18 AM EDT on April 29, 2017 (GMT -0400)
Hartford-brainard

Weather History for KHFD - October, 2012

Change the Weather History Date:

Thursday, October 4, 2012

  Actual Average Record
Temperature  
Mean Temperature 65 °F -  
Max Temperature 69 °F 65 °F 86 °F (1959)
Min Temperature 62 °F 45 °F 27 °F (1945)
Growing Degree Days 15 (Base 50)    
Moisture  
Dew Point 63 °F    
Average Humidity 93    
Maximum Humidity 100    
Minimum Humidity 84    
Precipitation  
Precipitation 0.22 in - - ()
Sea Level Pressure  
Sea Level Pressure 30.09 in    
Wind  
Wind Speed 2 mph (NNE)    
Max Wind Speed 10 mph    
Max Gust Speed -    
Visibility 4 miles    
Events Fog , Rain    
Averages and records for this station are not official NWS values.
T = Trace of Precipitation, MM = Missing Value Source: NWS Daily Summary

Daily Weather History Graph

Daily Weather History Graph

Search for Another Location

Airport or City:

Trip Planner

Search our weather history database for the weather conditions in past years. The results will help you decide how hot, cold, wet, or windy it might be!

Date:

Astronomy

Oct. 04, 2012 Rise Set
Actual Time 6:51 AM EDT 6:26 PM EDT
Civil Twilight 6:23 AM EDT 6:54 PM EDT
Nautical Twilight 5:51 AM EDT 7:26 PM EDT
Astronomical Twilight 5:18 AM EDT 7:58 PM EDT
Moon 8:56 PM EDT (10/4) 11:09 AM EDT (10/4)
Length of Visible Light 12h 30m
Length of Day
11h 35m
Waning Gibbous, 82% of the Moon is Illuminated
Oct 4
Waning Gibbous
Oct 8
Last Quarter
Oct 15
New
Oct 21
First Quarter
Oct 29
Full

Hourly Weather History & Observations

Time (EDT) Temp. Dew Point Humidity Pressure Visibility Wind Dir Wind Speed Gust Speed Precip Events Conditions
12:45 AM 64.4 °F 64.4 °F 100% 30.12 in 1.5 mi NNE 3.5 mph - N/A   Overcast
12:53 AM 64.9 °F 64.0 °F 97% 30.12 in 1.2 mi Calm Calm - N/A   Overcast
1:53 AM 64.9 °F 64.0 °F 97% 30.12 in 1.2 mi Calm Calm - N/A   Overcast
2:53 AM 64.9 °F 64.0 °F 97% 30.13 in 1.2 mi Calm Calm - 0.01 in   Overcast
3:53 AM 64.9 °F 64.0 °F 97% 30.12 in 1.5 mi North 4.6 mph - N/A   Overcast
4:53 AM 64.9 °F 63.0 °F 93% 30.12 in 1.5 mi NE 3.5 mph - N/A   Overcast
5:50 AM 64.4 °F 62.6 °F 94% 30.13 in 3.0 mi NNE 4.6 mph - 0.01 in Rain Light Rain
5:53 AM 64.9 °F 63.0 °F 93% 30.13 in 3.0 mi NNE 4.6 mph - 0.01 in Rain Light Rain
6:53 AM 64.0 °F 63.0 °F 96% 30.13 in 2.0 mi Calm Calm - 0.00 in   Overcast
7:04 AM 64.4 °F 62.6 °F 94% 30.13 in 3.0 mi Calm Calm - N/A   Overcast
7:53 AM 64.9 °F 63.0 °F 93% 30.14 in 6.0 mi Calm Calm - N/A   Overcast
8:49 AM 64.4 °F 62.6 °F 94% 30.14 in 2.5 mi NNE 4.6 mph - N/A   Overcast
8:50 AM 64.9 °F 63.0 °F 93% 30.14 in 2.0 mi NNE 4.6 mph - N/A   Overcast
8:57 AM 64.4 °F 62.6 °F 94% 30.15 in 1.0 mi North 3.5 mph - N/A   Overcast
9:23 AM 64.4 °F 62.6 °F 94% 30.14 in 3.0 mi NNE 4.6 mph - N/A   Overcast
9:53 AM 66.0 °F 63.0 °F 90% 30.14 in 7.0 mi Calm Calm - N/A   Overcast
10:53 AM 66.0 °F 63.0 °F 90% 30.15 in 6.0 mi Calm Calm - 0.00 in   Overcast
11:53 AM 68.0 °F 63.0 °F 84% 30.14 in 8.0 mi Calm Calm - N/A   Overcast
12:53 PM 66.9 °F 64.0 °F 90% 30.11 in 7.0 mi North 5.8 mph - N/A   Overcast
1:53 PM 66.9 °F 64.0 °F 90% 30.06 in 6.0 mi NNE 4.6 mph - 0.00 in   Overcast
2:53 PM 68.0 °F 64.0 °F 87% 30.07 in 9.0 mi WSW 3.5 mph - 0.00 in Rain Light Rain
3:53 PM 68.0 °F 64.0 °F 87% 30.06 in 8.0 mi Calm Calm - 0.00 in   Overcast
4:53 PM 68.0 °F 64.0 °F 87% 30.06 in 8.0 mi Calm Calm - N/A   Overcast
5:19 PM 68.0 °F 64.4 °F 88% 30.06 in 9.0 mi Calm Calm - N/A   Overcast
5:29 PM 66.2 °F 64.4 °F 94% 30.05 in 7.0 mi East 3.5 mph - N/A   Overcast
6:53 PM 66.9 °F 64.0 °F 90% 30.04 in 6.0 mi Calm Calm - 0.01 in Rain Light Rain
7:23 PM 66.2 °F 64.4 °F 94% 30.05 in 2.5 mi NNW 4.6 mph - 0.04 in Rain Rain
7:34 PM 66.2 °F 64.4 °F 94% 30.04 in 2.0 mi NNE 10.4 mph - 0.11 in Rain Heavy Rain
7:53 PM 66.0 °F 64.0 °F 93% 30.05 in 2.0 mi Calm Calm - 0.19 in Rain Heavy Rain
7:57 PM 66.2 °F 64.4 °F 94% 30.05 in 1.8 mi NNE 3.5 mph - 0.05 in Rain Heavy Rain
8:37 PM 66.2 °F 64.4 °F 94% 30.04 in 2.0 mi Calm Calm - 0.34 in Rain Heavy Rain
9:01 PM 66.2 °F 64.4 °F 94% 30.04 in 4.0 mi Calm Calm - 0.00 in Rain Light Rain
9:53 PM 66.0 °F 64.0 °F 93% 30.05 in 7.0 mi Calm Calm - 0.00 in   Mostly Cloudy
10:17 PM 64.4 °F 62.6 °F 94% 30.05 in 6.0 mi Calm Calm - N/A   Mostly Cloudy
10:21 PM 64.4 °F 62.6 °F 94% 30.05 in 1.5 mi Calm Calm - N/A   Mostly Cloudy
10:24 PM 64.4 °F 62.6 °F 94% 30.05 in 5.0 mi Calm Calm - N/A   Mostly Cloudy
10:34 PM 64.4 °F 62.6 °F 94% 30.05 in 3.0 mi Calm Calm - N/A   Mostly Cloudy
10:42 PM 64.4 °F 62.6 °F 94% 30.05 in 3.0 mi Calm Calm - N/A   Scattered Clouds
10:53 PM 64.0 °F 62.1 °F 93% 30.05 in 3.0 mi Calm Calm - N/A   Mostly Cloudy
11:00 PM 62.6 °F 62.6 °F 100% 30.05 in 0.5 mi Calm Calm - N/A Fog Fog
11:16 PM 64.4 °F 62.6 °F 94% 30.05 in 2.5 mi Calm Calm - N/A   Mostly Cloudy
11:37 PM 64.4 °F 62.6 °F 94% 30.05 in 6.0 mi Calm Calm - N/A   Overcast
11:53 PM 64.0 °F 63.0 °F 96% 30.05 in 10.0 mi Calm Calm - N/A   Overcast